| time (UTC) | temp F | wind direction | speed knots | gust knots | rain 1hr in | rain 24hr in | rain mn in | humidity % | barometer mb |
| 20260504214346 | 68 | 312 | 0.9 | 5.2 | 0.00 | 0.00 | 0.00 | 52 | 1011.4 |
| 20260504213411 | 67 | 35 | 0.9 | 7.0 | 0.00 | 0.00 | 0.00 | 53 | 1011.5 |
| 20260504212344 | 68 | 307 | 0.9 | 4.3 | 0.00 | 0.00 | 0.00 | 51 | 1011.5 |
| 20260504211349 | 68 | 300 | 0.9 | 5.2 | 0.00 | 0.00 | 0.00 | 49 | 1011.5 |
| 20260504210343 | 68 | 233 | 0.9 | 6.1 | 0.00 | 0.00 | 0.00 | 49 | 1011.5 |
| 20260504205347 | 69 | 243 | 1.7 | 3.5 | 0.00 | 0.00 | 0.00 | 48 | 1011.5 |
| 20260504204411 | 69 | 309 | 0.9 | 3.5 | 0.00 | 0.00 | 0.00 | 43 | 1011.4 |
| 20260504203345 | 69 | 302 | 2.6 | 4.3 | 0.00 | 0.00 | 0.00 | 43 | 1011.5 |
| 20260504202350 | 69 | 25 | 1.7 | 5.2 | 0.00 | 0.00 | 0.00 | 45 | 1011.5 |
| 20260504201344 | 71 | 307 | 0.9 | 2.6 | 0.00 | 0.00 | 0.00 | 46 | 1011.5 |
| 20260504200347 | 71 | 330 | 0.9 | 3.5 | 0.00 | 0.00 | 0.00 | 46 | 1011.5 |
| 20260504195341 | 72 | 283 | 0.9 | 3.5 | 0.00 | 0.00 | 0.00 | 45 | 1011.5 |
| 20260504194345 | 73 | 349 | 0.9 | 3.5 | 0.00 | 0.00 | 0.00 | 43 | 1011.4 |
| 20260504193410 | 73 | 267 | 1.7 | 2.6 | 0.00 | 0.00 | 0.00 | 40 | 1011.4 |
| 20260504192344 | 75 | 295 | 1.7 | 3.5 | 0.00 | 0.00 | 0.00 | 39 | 1011.4 |
| 20260504191409 | 76 | 286 | 0.9 | 3.5 | 0.00 | 0.00 | 0.00 | 40 | 1011.2 |
| 20260504190343 | 75 | 349 | 0.9 | 3.5 | 0.00 | 0.00 | 0.00 | 40 | 1011.2 |
| 20260504185346 | 74 | 354 | 1.7 | 3.5 | 0.00 | 0.00 | 0.00 | 38 | 1011.2 |
| 20260504184351 | 74 | 259 | 0.9 | 5.2 | 0.00 | 0.00 | 0.00 | 40 | 1011.2 |
| 20260504183345 | 74 | 20 | 1.7 | 3.5 | 0.00 | 0.00 | 0.00 | 41 | 1011.3 |
| 20260504182349 | 74 | 276 | 0.9 | 2.6 | 0.00 | 0.00 | 0.00 | 42 | 1011.5 |
| 20260504181344 | 73 | 325 | 0.9 | 2.6 | 0.00 | 0.00 | 0.00 | 41 | 1011.5 |
| 20260504180348 | 73 | 298 | 1.7 | 3.5 | 0.00 | 0.00 | 0.00 | 40 | 1011.5 |
| 20260504175342 | 73 | 331 | 0.9 | 2.6 | 0.00 | 0.00 | 0.00 | 40 | 1011.5 |
| 20260504174346 | 73 | 303 | 0.0 | 1.7 | 0.00 | 0.00 | 0.00 | 42 | 1011.5 |
| 20260504173451 | 72 | 9 | 0.9 | 3.5 | 0.00 | 0.00 | 0.00 | 42 | 1011.5 |
| 20260504172405 | 72 | 295 | 0.9 | 3.5 | 0.00 | 0.00 | 0.00 | 41 | 1011.5 |
| 20260504171350 | 72 | 13 | 0.9 | 2.6 | 0.00 | 0.00 | 0.00 | 43 | 1011.6 |
| 20260504170343 | 72 | 315 | 0.9 | 2.6 | 0.00 | 0.00 | 0.00 | 42 | 1011.6 |
| 20260504160350 | 67 | 310 | 0.0 | 1.7 | 0.00 | 0.00 | 0.00 | 49 | 1011.5 |
| 20260504150345 | 57 | 90 | 0.9 | 1.7 | 0.00 | 0.00 | 0.00 | 70 | 1011.0 |
| 20260504140409 | 50 | 0.0 | 0.9 | 0.00 | 0.00 | 0.00 | 74 | 1010.6 | |
| 20260504130344 | 49 | 205 | 0.9 | 1.7 | 0.00 | 0.00 | 0.00 | 74 | 1010.3 |
| 20260504110343 | 51 | 0.0 | 0.9 | 0.00 | 0.00 | 0.00 | 63 | 1010.2 | |
| 20260504100348 | 54 | 75 | 0.9 | 1.7 | 0.00 | 0.00 | 0.00 | 54 | 1010.0 |
| 20260504081342 | 56 | 166 | 2.6 | 4.3 | 0.00 | 0.00 | 0.00 | 55 | 1009.7 |
| 20260504080346 | 56 | 159 | 1.7 | 4.3 | 0.00 | 0.00 | 0.00 | 56 | 1009.7 |
| 20260504070350 | 54 | 222 | 1.7 | 2.6 | 0.00 | 0.00 | 0.00 | 66 | 1010.1 |
| 20260504050341 | 60 | 0.0 | 0.0 | 0.00 | 0.00 | 0.00 | 55 | 1010.4 | |
| 20260504045426 | 60 | 170 | 0.0 | 0.9 | 0.00 | 0.00 | 0.00 | 55 | 1010.4 |
| 20260504044350 | 61 | 0.0 | 0.9 | 0.00 | 0.00 | 0.00 | 54 | 1010.4 | |
| 20260504043344 | 61 | 180 | 0.0 | 1.7 | 0.00 | 0.00 | 0.00 | 52 | 1010.3 |
| 20260504042349 | 62 | 279 | 0.9 | 2.6 | 0.00 | 0.00 | 0.00 | 54 | 1010.4 |
| 20260504041403 | 63 | 242 | 0.9 | 0.9 | 0.00 | 0.00 | 0.00 | 55 | 1010.3 |
| 20260504040408 | 63 | 236 | 0.0 | 0.9 | 0.00 | 0.00 | 0.00 | 50 | 1010.3 |
| 20260504035342 | 64 | 135 | 0.0 | 0.9 | 0.00 | 0.00 | 0.00 | 46 | 1010.2 |
| 20260504034347 | 65 | 0.0 | 0.0 | 0.00 | 0.00 | 0.00 | 44 | 1010.1 | |
| 20260504033351 | 66 | 0.0 | 0.0 | 0.00 | 0.00 | 0.00 | 42 | 1010.1 | |
| 20260504032345 | 66 | 0.0 | 0.0 | 0.00 | 0.00 | 0.00 | 40 | 1010.1 | |
| 20260504031430 | 67 | 0.0 | 0.0 | 0.00 | 0.00 | 0.00 | 40 | 1010.1 | |
| 20260504030344 | 68 | 0.0 | 0.0 | 0.00 | 0.00 | 0.00 | 40 | 1010.1 | |
| 20260504025348 | 68 | 0.0 | 0.0 | 0.00 | 0.00 | 0.00 | 40 | 1010.1 | |
| 20260504024342 | 69 | 0.0 | 0.9 | 0.00 | 0.00 | 0.00 | 37 | 1010.2 | |
| 20260504023406 | 70 | 180 | 0.9 | 0.9 | 0.00 | 0.00 | 0.00 | 35 | 1010.3 |
| 20260504022411 | 70 | 0.0 | 0.0 | 0.00 | 0.00 | 0.00 | 35 | 1010.5 | |
| 20260504021345 | 70 | 0.0 | 0.9 | 0.00 | 0.00 | 0.00 | 32 | 1010.5 | |
| 20260504020349 | 71 | 0.0 | 0.0 | 0.00 | 0.00 | 0.00 | 31 | 1010.6 | |
| 20260504015343 | 71 | 0.0 | 1.7 | 0.00 | 0.00 | 0.00 | 31 | 1010.6 | |
| 20260504014348 | 72 | 247 | 0.0 | 0.9 | 0.00 | 0.00 | 0.00 | 31 | 1010.8 |
| 20260504013341 | 72 | 174 | 0.0 | 0.9 | 0.00 | 0.00 | 0.00 | 31 | 1010.8 |
| 20260504012346 | 73 | 118 | 0.9 | 1.7 | 0.00 | 0.00 | 0.00 | 32 | 1011.0 |
| 20260504011350 | 73 | 248 | 0.9 | 1.7 | 0.00 | 0.00 | 0.00 | 29 | 1011.1 |
| 20260504010344 | 74 | 288 | 1.7 | 2.6 | 0.00 | 0.00 | 0.00 | 27 | 1011.2 |
| 20260504005348 | 74 | 219 | 0.9 | 1.7 | 0.00 | 0.00 | 0.00 | 29 | 1011.3 |
| 20260504004342 | 75 | 175 | 0.9 | 2.6 | 0.00 | 0.00 | 0.00 | 27 | 1011.5 |
| 20260504003347 | 75 | 107 | 0.0 | 2.6 | 0.00 | 0.00 | 0.00 | 27 | 1011.5 |
| 20260504002351 | 76 | 180 | 0.9 | 1.7 | 0.00 | 0.00 | 0.00 | 27 | 1011.5 |
| 20260504001345 | 76 | 299 | 0.9 | 1.7 | 0.00 | 0.00 | 0.00 | 26 | 1011.6 |
| 20260504000349 | 77 | 6 | 0.9 | 2.6 | 0.00 | 0.00 | 0.00 | 26 | 1011.6 |
| 20260503235343 | 78 | 251 | 0.9 | 1.7 | 0.00 | 0.00 | 0.00 | 26 | 1011.7 |
| 20260503234408 | 78 | 339 | 1.7 | 2.6 | 0.00 | 0.00 | 0.00 | 27 | 1011.9 |
| 20260503233342 | 78 | 293 | 0.0 | 2.6 | 0.00 | 0.00 | 0.00 | 29 | 1012.0 |
| 20260503232346 | 78 | 252 | 1.7 | 2.6 | 0.00 | 0.00 | 0.00 | 29 | 1012.1 |
| 20260503231411 | 77 | 234 | 1.7 | 2.6 | 0.00 | 0.00 | 0.00 | 29 | 1012.2 |
| 20260503230345 | 78 | 311 | 0.9 | 1.7 | 0.00 | 0.00 | 0.00 | 31 | 1012.3 |
| 20260503225350 | 77 | 215 | 0.9 | 1.7 | 0.00 | 0.00 | 0.00 | 35 | 1012.5 |
| 20260503224403 | 77 | 256 | 0.9 | 2.6 | 0.00 | 0.00 | 0.00 | 32 | 1012.6 |
| 20260503223348 | 77 | 300 | 0.0 | 2.6 | 0.00 | 0.00 | 0.00 | 32 | 1012.8 |
| 20260503222342 | 76 | 233 | 0.9 | 2.6 | 0.00 | 0.00 | 0.00 | 33 | 1013.0 |
| 20260503221346 | 76 | 269 | 0.9 | 2.6 | 0.00 | 0.00 | 0.00 | 33 | 1013.1 |
| 20260503220351 | 76 | 214 | 0.9 | 2.6 | 0.00 | 0.00 | 0.00 | 33 | 1013.3 |
| 20260503215344 | 76 | 258 | 0.9 | 1.7 | 0.00 | 0.00 | 0.00 | 34 | 1013.4 |